Radiation Dose at Monitoring Post of Fukushima Daini Nuclear Power Station
Date,Time,MP-1(microSv/h),MP-2(microSv/h),MP-3(microSv/h),MP-4(microSv/h),MP-5(microSv/h),MP-6(microSv/h),MP-7(microSv/h),Wind Direction,Wind Velocity(m/s),Rain
2020/04/07,00:00,0.178,0.160,0.266,0.243,0.256,0.138,0.083,west,10.3,No
2020/04/07,00:10,0.178,0.161,0.265,0.243,0.255,0.138,0.083,west,10.6,No
2020/04/07,00:20,0.177,0.161,0.266,0.242,0.256,0.138,0.084,west,10.0,No
2020/04/07,00:30,0.179,0.160,0.266,0.243,0.256,0.138,0.084,west,9.0,No
2020/04/07,00:40,0.179,0.161,0.266,0.243,0.256,0.137,0.083,west-northwest,10.6,No
2020/04/07,00:50,0.178,0.160,0.266,0.244,0.256,0.138,0.083,west,14.2,No
2020/04/07,01:00,0.178,0.161,0.265,0.243,0.255,0.138,0.084,west,13.7,No
2020/04/07,01:10,0.177,0.161,0.268,0.243,0.257,0.138,0.084,west,11.2,No
2020/04/07,01:20,0.179,0.161,0.266,0.246,0.256,0.138,0.083,west,11.7,No
2020/04/07,01:30,0.178,0.161,0.266,0.243,0.256,0.137,0.083,west,10.9,No
2020/04/07,01:40,0.179,0.161,0.268,0.243,0.256,0.137,0.083,west,9.0,No
2020/04/07,01:50,0.179,0.162,0.268,0.243,0.255,0.138,0.083,west,11.1,No
2020/04/07,02:00,0.179,0.162,0.267,0.244,0.256,0.137,0.083,west,11.7,No
2020/04/07,02:10,0.178,0.162,0.267,0.244,0.255,0.138,0.084,west,11.8,No
2020/04/07,02:20,0.179,0.162,0.267,0.242,0.256,0.138,0.083,west,12.6,No
2020/04/07,02:30,0.180,0.161,0.268,0.244,0.257,0.138,0.083,west,12.6,No
2020/04/07,02:40,0.178,0.161,0.268,0.244,0.256,0.137,0.084,west,12.2,No
2020/04/07,02:50,0.178,0.161,0.266,0.244,0.255,0.138,0.084,west,13.4,No
2020/04/07,03:00,0.178,0.161,0.267,0.243,0.255,0.138,0.084,west,11.8,No
2020/04/07,03:10,0.179,0.160,0.267,0.244,0.258,0.138,0.083,west,14.7,No
2020/04/07,03:20,0.179,0.162,0.266,0.245,0.256,0.138,0.084,west,14.4,No
2020/04/07,03:30,0.179,0.160,0.267,0.243,0.254,0.138,0.083,west-northwest,13.1,No
2020/04/07,03:40,0.179,0.161,0.267,0.243,0.256,0.138,0.084,west-northwest,11.8,No
2020/04/07,03:50,0.179,0.161,0.264,0.243,0.257,0.138,0.084,west-northwest,15.8,No
2020/04/07,04:00,0.179,0.161,0.265,0.243,0.257,0.138,0.084,west,14.2,No
2020/04/07,04:10,0.179,0.161,0.268,0.244,0.255,0.138,0.084,west,12.8,No
2020/04/07,04:20,0.179,0.162,0.268,0.243,0.256,0.139,0.084,west-northwest,6.8,No
2020/04/07,04:30,0.179,0.162,0.268,0.244,0.257,0.138,0.083,west,2.7,No
2020/04/07,04:40,0.179,0.162,0.267,0.244,0.255,0.138,0.083,northwest,0.6,No
2020/04/07,04:50,0.180,0.162,0.269,0.243,0.255,0.138,0.083,northwest,2.3,No
2020/04/07,05:00,0.179,0.162,0.268,0.243,0.255,0.138,0.084,north-northwest,3.7,No
2020/04/07,05:10,0.179,0.160,0.267,0.243,0.256,0.138,0.084,northwest,4.4,No
2020/04/07,05:20,0.179,0.162,0.266,0.243,0.256,0.138,0.084,northwest,5.1,No
2020/04/07,05:30,0.179,0.161,0.267,0.243,0.256,0.138,0.084,northwest,4.7,No
2020/04/07,05:40,0.178,0.162,0.266,0.242,0.255,0.138,0.084,northwest,2.3,No
2020/04/07,05:50,0.179,0.162,0.267,0.244,0.256,0.138,0.083,west-northwest,7.1,No
2020/04/07,06:00,0.180,0.161,0.267,0.243,0.255,0.138,0.083,west-northwest,2.9,No
2020/04/07,06:10,0.178,0.161,0.268,0.243,0.254,0.138,0.084,north,3.9,No
2020/04/07,06:20,0.179,0.162,0.266,0.244,0.256,0.137,0.083,west-northwest,6.4,No
2020/04/07,06:30,0.180,0.160,0.267,0.245,0.256,0.138,0.083,west-northwest,5.9,No
2020/04/07,06:40,0.177,0.160,0.266,0.242,0.257,0.138,0.083,west-northwest,5.7,No
2020/04/07,06:50,0.178,0.161,0.267,0.244,0.255,0.138,0.083,west-northwest,3.4,No
2020/04/07,07:00,0.178,0.163,0.266,0.244,0.256,0.138,0.083,northwest,2.8,No
2020/04/07,07:10,0.178,0.161,0.267,0.244,0.256,0.137,0.083,-,CALM,No
2020/04/07,07:20,0.179,0.161,0.266,0.243,0.255,0.137,0.084,east-northeast,0.7,No
2020/04/07,07:30,0.179,0.162,0.265,0.243,0.256,0.138,0.084,northeast,1.5,No
2020/04/07,07:40,0.178,0.161,0.266,0.242,0.256,0.138,0.084,east-northeast,3.4,No
2020/04/07,07:50,0.180,0.160,0.265,0.243,0.257,0.138,0.084,northeast,2.4,No
2020/04/07,08:00,0.179,0.161,0.265,0.242,0.255,0.138,0.083,northeast,1.9,No
2020/04/07,08:10,0.178,0.161,0.264,0.243,0.256,0.139,0.083,northeast,1.7,No
2020/04/07,08:20,0.180,0.161,0.266,0.241,0.258,0.139,0.083,northeast,1.6,No
2020/04/07,08:30,0.178,0.160,0.264,0.244,0.255,0.137,0.083,northeast,2.2,No
2020/04/07,08:40,0.179,0.161,0.265,0.241,0.256,0.137,0.084,east-northeast,2.8,No
2020/04/07,08:50,0.178,0.159,0.266,0.244,0.256,0.138,0.083,east-northeast,2.7,No
2020/04/07,09:00,0.179,0.160,0.267,0.241,0.256,0.138,0.084,east-northeast,2.3,No
2020/04/07,09:10,0.177,0.162,0.266,0.243,0.255,0.138,0.084,east-northeast,2.1,No
2020/04/07,09:20,0.179,0.161,0.266,0.241,0.256,0.136,0.083,east,1.1,No
2020/04/07,09:30,0.179,0.161,0.267,0.243,0.255,0.139,0.084,east,1.3,No
2020/04/07,09:40,0.178,0.161,0.266,0.242,0.257,0.137,0.083,east,2.5,No
2020/04/07,09:50,0.179,0.161,0.265,0.244,0.255,0.137,0.084,east,2.7,No
2020/04/07,10:00,0.179,0.161,0.267,0.243,0.257,0.137,0.084,east-southeast,2.7,No
2020/04/07,10:10,0.179,0.161,0.266,0.244,0.256,0.138,0.084,east-southeast,2.2,No
2020/04/07,10:20,0.179,0.161,0.266,0.243,0.257,0.137,0.084,south-southeast,1.6,No
2020/04/07,10:30,0.177,0.161,0.266,0.244,0.256,0.139,0.084,southeast,2.3,No
2020/04/07,10:40,0.180,0.161,0.267,0.243,0.256,0.138,0.083,southeast,1.7,No
2020/04/07,10:50,0.178,0.161,0.266,0.245,0.256,0.139,0.084,south-southeast,2.2,No
2020/04/07,11:00,0.180,0.161,0.266,0.242,0.257,0.137,0.084,south-southeast,2.0,No
2020/04/07,11:10,0.178,0.161,0.266,0.245,0.254,0.138,0.084,south-southeast,2.6,No
2020/04/07,11:20,0.180,0.161,0.267,0.243,0.258,0.137,0.084,south-southwest,1.5,No
2020/04/07,11:30,0.178,0.162,0.267,0.245,0.255,0.139,0.085,south,2.1,No
2020/04/07,11:40,0.178,0.162,0.267,0.242,0.258,0.138,0.084,south-southeast,1.8,No
2020/04/07,11:50,0.180,0.161,0.265,0.245,0.255,0.139,0.083,south-southeast,2.8,No
2020/04/07,12:00,0.177,0.161,0.268,0.243,0.257,0.138,0.084,south-southeast,2.7,No
2020/04/07,12:10,0.179,0.160,0.266,0.244,0.256,0.138,0.084,south-southeast,2.4,No
2020/04/07,12:20,0.178,0.162,0.268,0.243,0.256,0.138,0.084,south-southeast,2.7,No
2020/04/07,12:30,0.179,0.160,0.265,0.243,0.257,0.138,0.083,southeast,4.7,No
2020/04/07,12:40,0.178,0.162,0.268,0.245,0.254,0.138,0.083,south-southeast,4.2,No
2020/04/07,12:50,0.178,0.161,0.266,0.245,0.256,0.138,0.084,south-southeast,3.3,No
2020/04/07,13:00,0.179,0.162,0.270,0.244,0.254,0.137,0.083,south-southeast,3.0,No
2020/04/07,13:10,0.177,0.162,0.266,0.244,0.258,0.138,0.084,south,2.0,No
2020/04/07,13:20,0.179,0.162,0.268,0.244,0.256,0.138,0.083,south,2.6,No
2020/04/07,13:30,0.179,0.162,0.268,0.244,0.255,0.138,0.084,south-southeast,3.4,No
2020/04/07,13:40,0.177,0.161,0.267,0.246,0.257,0.138,0.084,south-southeast,2.9,No
2020/04/07,13:50,0.179,0.162,0.268,0.243,0.255,0.137,0.083,south-southeast,3.0,No
2020/04/07,14:00,0.178,0.162,0.267,0.244,0.257,0.138,0.084,southeast,2.8,No
2020/04/07,14:10,0.178,0.161,0.268,0.244,0.256,0.137,0.083,south-southeast,2.4,No
2020/04/07,14:20,0.179,0.161,0.267,0.245,0.258,0.138,0.084,south-southeast,2.1,No
2020/04/07,14:30,0.178,0.162,0.268,0.245,0.256,0.139,0.084,southeast,2.8,No
2020/04/07,14:40,0.180,0.162,0.268,0.245,0.257,0.138,0.083,south-southeast,3.6,No
2020/04/07,14:50,0.178,0.162,0.269,0.243,0.257,0.137,0.084,south-southeast,3.9,No
2020/04/07,15:00,0.180,0.162,0.268,0.246,0.256,0.138,0.083,south-southeast,4.1,No
2020/04/07,15:10,0.178,0.163,0.268,0.245,0.257,0.137,0.084,south-southeast,3.5,No
2020/04/07,15:20,0.179,0.162,0.269,0.246,0.255,0.139,0.083,south-southeast,3.8,No
2020/04/07,15:30,0.177,0.161,0.270,0.246,0.258,0.138,0.084,south-southeast,3.9,No
2020/04/07,15:40,0.179,0.162,0.270,0.245,0.257,0.138,0.084,south-southeast,3.3,No
2020/04/07,15:50,0.179,0.162,0.268,0.246,0.257,0.137,0.084,south-southeast,3.4,No
2020/04/07,16:00,0.179,0.163,0.269,0.244,0.259,0.138,0.084,south-southeast,4.5,No
2020/04/07,16:10,0.178,0.161,0.269,0.246,0.258,0.138,0.084,south-southeast,4.8,No
2020/04/07,16:20,0.178,0.162,0.269,0.247,0.257,0.138,0.084,south-southeast,5.1,No
2020/04/07,16:30,0.179,0.162,0.269,0.245,0.256,0.138,0.085,south-southeast,5.3,No
2020/04/07,16:40,0.179,0.163,0.269,0.246,0.256,0.137,0.084,south-southeast,4.9,No
2020/04/07,16:50,0.180,0.161,0.270,0.245,0.256,0.139,0.084,south-southeast,5.3,No
2020/04/07,17:00,0.179,0.162,0.269,0.245,0.257,0.139,0.084,south-southeast,5.1,No
2020/04/07,17:10,0.179,0.162,0.268,0.245,0.256,0.140,0.084,south-southeast,5.2,No
2020/04/07,17:20,0.179,0.163,0.269,0.245,0.259,0.139,0.084,south,6.0,No
2020/04/07,17:30,0.179,0.163,0.269,0.245,0.257,0.139,0.083,south-southeast,5.0,No
2020/04/07,17:40,0.179,0.162,0.269,0.247,0.257,0.139,0.084,south,4.2,No
2020/04/07,17:50,0.180,0.162,0.269,0.246,0.258,0.139,0.084,south-southeast,4.1,No
2020/04/07,18:00,0.180,0.162,0.269,0.246,0.257,0.139,0.084,south-southeast,4.3,No
2020/04/07,18:10,0.179,0.162,0.267,0.246,0.258,0.139,0.084,south-southeast,3.3,No
2020/04/07,18:20,0.180,0.162,0.269,0.245,0.258,0.138,0.084,south-southeast,4.6,No
2020/04/07,18:30,0.180,0.162,0.269,0.247,0.257,0.139,0.084,south-southeast,5.2,No
2020/04/07,18:40,0.179,0.163,0.268,0.246,0.257,0.138,0.085,south-southeast,4.4,No
2020/04/07,18:50,0.178,0.162,0.270,0.247,0.258,0.139,0.084,south,3.8,No
2020/04/07,19:00,0.179,0.161,0.270,0.245,0.257,0.138,0.084,south,3.5,No
2020/04/07,19:10,0.180,0.161,0.269,0.245,0.257,0.139,0.084,south,3.3,No
2020/04/07,19:20,0.178,0.163,0.268,0.246,0.258,0.139,0.085,south,3.3,No
2020/04/07,19:30,0.181,0.162,0.271,0.245,0.257,0.139,0.084,south,3.8,No
2020/04/07,19:40,0.180,0.163,0.270,0.245,0.257,0.139,0.083,south,3.3,No
2020/04/07,19:50,0.179,0.163,0.268,0.246,0.258,0.139,0.084,south,3.6,No
2020/04/07,20:00,0.179,0.162,0.269,0.246,0.255,0.137,0.084,south,3.6,No
2020/04/07,20:10,0.179,0.162,0.269,0.246,0.257,0.138,0.084,south,3.8,No
2020/04/07,20:20,0.180,0.162,0.269,0.245,0.257,0.139,0.084,south,2.8,No
2020/04/07,20:30,0.180,0.163,0.269,0.246,0.256,0.139,0.085,south-southwest,2.0,No
2020/04/07,20:40,0.179,0.162,0.269,0.246,0.256,0.139,0.085,southwest,2.1,No
2020/04/07,20:50,0.180,0.163,0.271,0.247,0.257,0.138,0.085,south,1.4,No
2020/04/07,21:00,0.180,0.163,0.269,0.246,0.256,0.138,0.084,south,1.9,No
2020/04/07,21:10,0.180,0.162,0.269,0.246,0.255,0.139,0.084,south-southeast,1.3,No
2020/04/07,21:20,0.181,0.163,0.271,0.246,0.257,0.138,0.085,southeast,0.9,No
2020/04/07,21:30,0.179,0.163,0.271,0.248,0.257,0.139,0.085,south-southeast,0.9,No
2020/04/07,21:40,0.181,0.162,0.270,0.247,0.257,0.139,0.085,-,CALM,No
2020/04/07,21:50,0.180,0.163,0.269,0.245,0.257,0.138,0.085,west-southwest,0.6,No
2020/04/07,22:00,0.180,0.162,0.270,0.246,0.257,0.138,0.085,south-southwest,0.9,No
2020/04/07,22:10,0.179,0.163,0.269,0.246,0.257,0.138,0.085,southwest,1.3,No
2020/04/07,22:20,0.181,0.163,0.270,0.246,0.256,0.137,0.085,south,1.7,No
2020/04/07,22:30,0.180,0.163,0.269,0.246,0.258,0.138,0.085,west-southwest,0.6,No
2020/04/07,22:40,0.179,0.163,0.271,0.246,0.259,0.139,0.085,west-southwest,1.1,No
2020/04/07,22:50,0.179,0.163,0.270,0.246,0.257,0.139,0.085,west-southwest,1.0,No
2020/04/07,23:00,0.180,0.164,0.271,0.247,0.258,0.139,0.085,west-southwest,2.7,No
2020/04/07,23:10,0.180,0.162,0.269,0.245,0.258,0.138,0.084,southwest,1.2,No
2020/04/07,23:20,0.179,0.162,0.269,0.245,0.258,0.138,0.085,west-southwest,1.5,No
2020/04/07,23:30,0.180,0.162,0.270,0.247,0.257,0.139,0.085,west-southwest,2.2,No
2020/04/07,23:40,0.180,0.163,0.271,0.246,0.257,0.139,0.085,southwest,1.9,No
2020/04/07,23:50,0.179,0.163,0.270,0.246,0.257,0.139,0.085,southwest,1.5,No
